SCP
0 -0 -0 0 0 0 0 -0 0 0 0 0 0 -0 -0 0 0 0 0 0 0 0
-0 -0 -0 -0 -0 -0 -0 0 -0 -0 0 0 0 0 0 0 0 0 0 0 0 0
-0 -0 0 0 0 0 0 0 0 0 0 0 0 0 0 0 0 0 0 0 0 0
0 0 0 0 0 0 0 0 0 0 0 0 0 0 0 0 0 0 0 0 0 0
0 0 0 0 0 0 0 0 0 0 0 0 0 0 0 0 0 0 0 0 0 0
-0 -0 0 -0 0 0 0 0 0 0 0 0 0 0 0 0 0 0 0 0 0 0
-0 -0 0 0 0 0 0 0 0 0 0 0 0 0 0 0 0 0 0 0 0 0
0 0 0 0 0 0 0 0 0 0 0 0 0 0 0 0 0 0 0 0 0 0
0 0 0 0 0 0 0 0 0 0 0 0 0 0 0 0 0 0 0 0 0 0
0 0 0 0 0 0 0 0 0 0 0 0 0 0 0 0 0 0 0 0 0 0
0 0 0 0 0 0 0 0 0 0 0 0 0 0 0 0 0 0 0 0 0 0
0 0 0 0 0 0 0 0 0 0 0 0 0 0 0 0 0 0 0 0 0 0
0 0 0 0 0 0 0 0 0 0 0 0 0 0 0 0 0 0 0 0 0 0
0 0 0 0 0 0 0 0 0 0 0 0 0 0 0 0 0 0 0 0 0 0
Wind_Speed_500mb
15 26 22 12 22 48 34 41 64 76 67 54 57 50 46 45 45 43 46 47 44 43
38 20 27 31 22 26 24 41 62 65 55 48 41 44 47 42 42 46 48 49 47 43
25 25 26 25 26 17 18 19 53 65 57 43 42 40 44 44 38 48 44 42 40 40
20 9 18 18 22 24 12 15 23 31 23 25 33 37 42 39 42 39 38 37 36 37
18 20 23 24 24 22 20 21 20 21 21 24 29 30 29 30 30 31 32 34 34 34
30 27 26 27 23 21 18 18 18 17 18 19 20 22 24 25 27 27 27 33 31 26
36 33 31 30 26 22 19 15 13 12 12 15 17 20 23 25 27 26 25 26 30 30
31 28 25 21 17 15 10 7 4 4 8 11 15 18 17 19 19 22 26 27 28 29
23 20 17 14 10 7 6 8 10 13 16 17 18 25 26 28 22 27 30 32 34 36
12 9 6 8 10 12 12 14 15 17 19 21 23 29 31 33 24 27 29 32 35 36
4 7 10 11 12 12 13 15 17 19 24 27 26 31 32 35 31 30 33 35 36 38
7 9 9 10 11 13 15 18 22 27 30 28 22 34 34 37 34 34 38 38 38 38
5 5 6 7 10 14 18 22 27 28 30 33 34 36 37 39 32 34 35 36 35 35
7 6 7 10 15 20 23 24 26 27 28 30 30 32 37 37 28 32 35 38 41 37
Wind_Direction_500mb
134 112 128 171 192 172 185 198 198 200 201 203 214 237 234 241 246 246 250 252 252 253
142 144 140 150 157 173 204 226 203 199 204 215 230 230 229 230 245 248 248 250 249 249
139 142 155 171 197 223 224 235 203 207 213 216 220 211 243 238 243 251 250 246 248 253
160 197 189 189 206 226 234 199 186 202 209 207 226 223 228 237 241 241 245 252 256 259
152 127 116 121 128 133 133 140 156 181 203 219 220 222 226 230 240 249 256 260 263 270
112 116 123 115 115 119 125 134 144 160 176 192 206 221 235 246 257 260 261 271 272 267
110 108 106 105 107 111 114 127 145 176 207 229 243 254 263 268 269 268 266 264 269 269
101 101 98 101 105 102 115 131 154 229 259 276 279 274 279 284 275 277 274 276 279 278
97 96 89 78 65 40 0 346 324 315 311 306 300 295 291 284 285 289 288 287 282 277
91 67 36 360 339 330 327 325 322 318 314 311 307 299 294 288 294 285 287 288 287 286
50 352 340 340 344 339 333 330 327 322 313 309 306 300 295 293 300 292 287 286 287 286
337 332 331 329 326 323 324 322 314 312 312 309 307 300 296 292 293 294 293 294 292 288
304 301 302 308 312 306 304 306 310 309 304 299 298 297 295 294 298 294 290 287 285 283
280 278 279 296 304 304 306 311 306 303 303 303 299 299 299 297 297 290 294 294 293 290
Wind_Speed_850mb
15 26 22 12 22 48 34 41 64 76 67 54 57 50 46 45 45 43 46 47 44 43
38 20 27 31 22 26 24 41 62 65 55 48 41 44 47 42 42 46 48 49 47 43
25 25 26 25 26 17 18 19 53 65 57 43 42 40 44 44 38 48 44 42 40 40
20 9 18 18 22 24 12 15 23 31 23 25 33 37 42 39 42 39 38 37 36 37
18 20 23 24 24 22 20 21 20 21 21 24 29 30 29 30 30 31 32 34 34 34
30 27 26 27 23 21 18 18 18 17 18 19 20 22 24 25 27 27 27 33 31 26
36 33 31 30 26 22 19 15 13 12 12 15 17 20 23 25 27 26 25 26 30 30
31 28 25 21 17 15 10 7 4 4 8 11 15 18 17 19 19 22 26 27 28 29
23 20 17 14 10 7 6 8 10 13 16 17 18 25 26 28 22 27 30 32 34 36
12 9 6 8 10 12 12 14 15 17 19 21 23 29 31 33 24 27 29 32 35 36
4 7 10 11 12 12 13 15 17 19 24 27 26 31 32 35 31 30 33 35 36 38
7 9 9 10 11 13 15 18 22 27 30 28 22 34 34 37 34 34 38 38 38 38
5 5 6 7 10 14 18 22 27 28 30 33 34 36 37 39 32 34 35 36 35 35
7 6 7 10 15 20 23 24 26 27 28 30 30 32 37 37 28 32 35 38 41 37
Wind_Direction_850mb
134 112 128 171 192 172 185 198 198 200 201 203 214 237 234 241 246 246 250 252 252 253
142 144 140 150 157 173 204 226 203 199 204 215 230 230 229 230 245 248 248 250 249 249
139 142 155 171 197 223 224 235 203 207 213 216 220 211 243 238 243 251 250 246 248 253
160 197 189 189 206 226 234 199 186 202 209 207 226 223 228 237 241 241 245 252 256 259
152 127 116 121 128 133 133 140 156 181 203 219 220 222 226 230 240 249 256 260 263 270
112 116 123 115 115 119 125 134 144 160 176 192 206 221 235 246 257 260 261 271 272 267
110 108 106 105 107 111 114 127 145 176 207 229 243 254 263 268 269 268 266 264 269 269
101 101 98 101 105 102 115 131 154 229 259 276 279 274 279 284 275 277 274 276 279 278
97 96 89 78 65 40 0 346 324 315 311 306 300 295 291 284 285 289 288 287 282 277
91 67 36 360 339 330 327 325 322 318 314 311 307 299 294 288 294 285 287 288 287 286
50 352 340 340 344 339 333 330 327 322 313 309 306 300 295 293 300 292 287 286 287 286
337 332 331 329 326 323 324 322 314 312 312 309 307 300 296 292 293 294 293 294 292 288
304 301 302 308 312 306 304 306 310 309 304 299 298 297 295 294 298 294 290 287 285 283
280 278 279 296 304 304 306 311 306 303 303 303 299 299 299 297 297 290 294 294 293 290